Vertical_Velocity
-8 33 -2 0 -1 -0 -1 5 11 53 -1 6 4 -4 -0 0 5 0 -4 1 0 2
9 15 -0 2 2 3 4 3 -1 10 8 4 3 3 -5 1 1 3 0 1 3 -1
2 5 4 5 -1 -2 5 4 2 0 5 1 -0 -2 -2 10 7 -5 1 1 -1 -1
3 0 3 -1 3 -4 7 6 1 4 1 -3 -1 -1 -4 21 -5 -5 -3 2 -5 2
4 -0 -1 -2 7 1 1 2 2 2 -2 -0 -1 0 28 -2 25 -1 -2 1 3 0
-1 1 -2 3 2 6 7 0 3 -0 0 -2 -0 1 7 0 3 2 2 -3 -5 -0
-0 -1 -4 9 65 -5 -0 3 1 0 2 -1 0 4 4 1 1 -1 -0 -1 -5 0
7 -3 4 19 13 -7 -3 6 4 5 -7 -2 -1 -1 1 -1 -3 -3 -3 3 3 4
3 6 -0 -10 9 12 18 -1 -1 -3 -1 -5 -5 -6 0 1 0 -0 -0 -2 0 3
12 -3 4 6 -6 -10 30 -1 -2 1 3 1 2 2 1 4 1 -1 -1 -1 1 6
12 0 7 -24 7 -6 -9 -7 20 22 1 2 -1 1 3 3 1 2 1 -0 1 -1
7 10 3 -1 13 28 21 25 -14 -9 3 3 0 -0 4 7 -0 -1 -0 -0 -1 0
1 6 14 -1 -5 18 14 12 24 -11 10 10 -6 5 4 7 -2 -3 2 3 -0 -1
2 6 3 8 7 -2 1 11 5 17 20 -9 -1 -3 9 11 -1 -0 -1 -0 0 0
Height
3034 3033 3043 3051 3057 3061 3067 3074 3083 3081 3090 3096 3100 3105 3109 3112 3117 3119 3124 3128 3130 3134
3018 3027 3032 3040 3046 3051 3058 3064 3071 3078 3082 3088 3092 3098 3102 3106 3110 3113 3116 3120 3124 3128
3005 3013 3021 3029 3034 3040 3048 3055 3061 3066 3072 3078 3083 3088 3094 3097 3102 3105 3110 3113 3117 3121
2991 3000 3009 3016 3024 3030 3038 3045 3050 3057 3063 3068 3074 3079 3083 3084 3093 3098 3103 3105 3110 3113
2977 2987 2995 3004 3013 3020 3027 3034 3040 3047 3053 3059 3064 3069 3071 3078 3080 3089 3093 3099 3102 3106
2964 2973 2982 2993 3001 3009 3016 3023 3030 3036 3043 3049 3055 3061 3065 3071 3075 3081 3086 3091 3095 3101
2953 2962 2969 2980 2986 2996 3005 3012 3019 3025 3032 3038 3045 3052 3057 3063 3067 3072 3077 3082 3087 3090
2944 2951 2961 2969 2979 2985 2994 3003 3009 3016 3023 3027 3035 3041 3048 3054 3059 3063 3068 3072 3077 3080
2934 2943 2951 2959 2966 2975 2981 2991 2999 3006 3015 3017 3025 3032 3040 3045 3049 3053 3057 3062 3066 3072
2923 2932 2942 2950 2958 2968 2972 2980 2989 2995 3003 3009 3016 3023 3030 3035 3040 3044 3048 3052 3057 3063
2914 2924 2932 2941 2948 2956 2963 2970 2973 2982 2992 2999 3006 3014 3020 3026 3030 3034 3038 3043 3048 3051
2911 2916 2922 2928 2937 2943 2948 2957 2966 2974 2983 2989 2995 3003 3010 3015 3019 3024 3029 3034 3038 3042
2910 2911 2914 2922 2931 2935 2941 2949 2954 2963 2971 2979 2985 2994 2999 3005 3009 3014 3019 3024 3028 3031
2909 2908 2908 2913 2922 2929 2936 2940 2947 2953 2960 2967 2975 2983 2989 2995 2999 3004 3009 3013 3017 3021